owner,sensor,date,latitude,longitude,vertical_datum,mass_concentration_of_oxygen_in_sea_water,qcFlag 
DISL,ioos:station:DISL:MHPA:1,2013-03-01T00:00:00Z,30.6671,-87.9365,3.535,8.84,1111122 
DISL,ioos:station:DISL:MHPA:1,2013-03-01T00:30:00Z,30.6671,-87.9365,3.457,8.63,1111122 
DISL,ioos:station:DISL:MHPA:1,2013-03-01T01:00:00Z,30.6671,-87.9365,3.391,8.7,1111122 
DISL,ioos:station:DISL:MHPA:1,2013-03-01T01:30:00Z,30.6671,-87.9365,3.332,9.02,1111122 
DISL,ioos:station:DISL:MHPA:1,2013-03-01T02:00:00Z,30.6671,-87.9365,3.276,9.15,1111122 
DISL,ioos:station:DISL:MHPA:1,2013-03-01T02:30:00Z,30.6671,-87.9365,3.236,9.23,1111122 
DISL,ioos:station:DISL:MHPA:1,2013-03-01T03:00:00Z,30.6671,-87.9365,3.201,8.81,1111122 
DISL,ioos:station:DISL:MHPA:1,2013-03-01T03:30:00Z,30.6671,-87.9365,3.166,8.61,1111122 
DISL,ioos:station:DISL:MHPA:1,2013-03-01T04:00:00Z,30.6671,-87.9365,3.135,9.14,1111122 
DISL,ioos:station:DISL:MHPA:1,2013-03-01T04:30:00Z,30.6671,-87.9365,3.121,9.01,1111122 
DISL,ioos:station:DISL:MHPA:1,2013-03-01T05:00:00Z,30.6671,-87.9365,3.105,9.0,1111122 
DISL,ioos:station:DISL:MHPA:1,2013-03-01T05:30:00Z,30.6671,-87.9365,3.08,8.84,1111122 
DISL,ioos:station:DISL:MHPA:1,2013-03-01T06:00:00Z,30.6671,-87.9365,3.051,8.67,1111122 
DISL,ioos:station:DISL:MHPA:1,2013-03-01T06:30:00Z,30.6671,-87.9365,3.029,8.53,1111122 
DISL,ioos:station:DISL:MHPA:1,2013-03-01T07:00:00Z,30.6671,-87.9365,3.023,8.04,1111122 
DISL,ioos:station:DISL:MHPA:1,2013-03-01T07:30:00Z,30.6671,-87.9365,3.024,7.9,1111122 
DISL,ioos:station:DISL:MHPA:1,2013-03-01T08:00:00Z,30.6671,-87.9365,3.021,8.37,1111122 
DISL,ioos:station:DISL:MHPA:1,2013-03-01T08:30:00Z,30.6671,-87.9365,3.024,8.45,1111122 
DISL,ioos:station:DISL:MHPA:1,2013-03-01T09:00:00Z,30.6671,-87.9365,3.054,8.71,1111122 
DISL,ioos:station:DISL:MHPA:1,2013-03-01T09:30:00Z,30.6671,-87.9365,3.095,9.24,1111122 
DISL,ioos:station:DISL:MHPA:1,2013-03-01T10:00:00Z,30.6671,-87.9365,3.109,9.01,1111122 
DISL,ioos:station:DISL:MHPA:1,2013-03-01T10:30:00Z,30.6671,-87.9365,3.11,9.22,1111122 
DISL,ioos:station:DISL:MHPA:1,2013-03-01T11:00:00Z,30.6671,-87.9365,3.117,9.2,1111122 
DISL,ioos:station:DISL:MHPA:1,2013-03-01T11:30:00Z,30.6671,-87.9365,3.12,8.71,1111122 
DISL,ioos:station:DISL:MHPA:1,2013-03-01T12:00:00Z,30.6671,-87.9365,3.116,9.2,1111122 
DISL,ioos:station:DISL:MHPA:1,2013-03-01T12:30:00Z,30.6671,-87.9365,3.12,9.12,1111122 
DISL,ioos:station:DISL:MHPA:1,2013-03-01T13:00:00Z,30.6671,-87.9365,3.137,8.96,1111122 
DISL,ioos:station:DISL:MHPA:1,2013-03-01T13:30:00Z,30.6671,-87.9365,3.16,8.85,1111122 
DISL,ioos:station:DISL:MHPA:1,2013-03-01T14:00:00Z,30.6671,-87.9365,3.188,8.76,1111122 
DISL,ioos:station:DISL:MHPA:1,2013-03-01T14:30:00Z,30.6671,-87.9365,3.204,8.75,1111122 
DISL,ioos:station:DISL:MHPA:1,2013-03-01T15:00:00Z,30.6671,-87.9365,3.228,8.96,1111122 
DISL,ioos:station:DISL:MHPA:1,2013-03-01T15:30:00Z,30.6671,-87.9365,3.256,9.08,1111122 
DISL,ioos:station:DISL:MHPA:1,2013-03-01T16:00:00Z,30.6671,-87.9365,3.295,9.12,1111122 
DISL,ioos:station:DISL:MHPA:1,2013-03-01T16:30:00Z,30.6671,-87.9365,3.339,9.07,1111122 
DISL,ioos:station:DISL:MHPA:1,2013-03-01T17:00:00Z,30.6671,-87.9365,3.399,9.09,1111122 
DISL,ioos:station:DISL:MHPA:1,2013-03-01T17:30:00Z,30.6671,-87.9365,3.452,9.05,1111122 
DISL,ioos:station:DISL:MHPA:1,2013-03-01T18:00:00Z,30.6671,-87.9365,3.534,9.31,1111122 
DISL,ioos:station:DISL:MHPA:1,2013-03-01T18:30:00Z,30.6671,-87.9365,3.594,9.19,1111122 
DISL,ioos:station:DISL:MHPA:1,2013-03-01T19:00:00Z,30.6671,-87.9365,3.66,9.17,1111122 
DISL,ioos:station:DISL:MHPA:1,2013-03-01T19:30:00Z,30.6671,-87.9365,3.802,9.43,1111122 
DISL,ioos:station:DISL:MHPA:1,2013-03-01T20:00:00Z,30.6671,-87.9365,3.949,9.87,1111122 
DISL,ioos:station:DISL:MHPA:1,2013-03-01T20:30:00Z,30.6671,-87.9365,4.059,9.37,1111122 
DISL,ioos:station:DISL:MHPA:1,2013-03-01T21:00:00Z,30.6671,-87.9365,4.067,9.31,1111122 
DISL,ioos:station:DISL:MHPA:1,2013-03-01T21:30:00Z,30.6671,-87.9365,4.065,9.4,1111122 
DISL,ioos:station:DISL:MHPA:1,2013-03-01T22:00:00Z,30.6671,-87.9365,4.084,9.54,1111122 
DISL,ioos:station:DISL:MHPA:1,2013-03-01T22:30:00Z,30.6671,-87.9365,4.032,9.3,1111122 
DISL,ioos:station:DISL:MHPA:1,2013-03-01T23:00:00Z,30.6671,-87.9365,3.981,9.39,1111122 
DISL,ioos:station:DISL:MHPA:1,2013-03-01T23:30:00Z,30.6671,-87.9365,3.883,8.82,1111122 
DISL,ioos:station:DISL:MHPA:1,2013-03-02T00:00:00Z,30.6671,-87.9365,3.783,8.83,1111122 
DISL,ioos:station:DISL:MHPA:1,2013-03-02T00:30:00Z,30.6671,-87.9365,3.691,8.83,1111122 
DISL,ioos:station:DISL:MHPA:1,2013-03-02T01:00:00Z,30.6671,-87.9365,3.6,9.06,1111122 
DISL,ioos:station:DISL:MHPA:1,2013-03-02T01:30:00Z,30.6671,-87.9365,3.505,8.45,1111122 
DISL,ioos:station:DISL:MHPA:1,2013-03-02T02:00:00Z,30.6671,-87.9365,3.425,9.42,1111122 
DISL,ioos:station:DISL:MHPA:1,2013-03-02T02:30:00Z,30.6671,-87.9365,3.338,9.19,1111122 
DISL,ioos:station:DISL:MHPA:1,2013-03-02T03:00:00Z,30.6671,-87.9365,3.252,9.27,1111122 
DISL,ioos:station:DISL:MHPA:1,2013-03-02T03:30:00Z,30.6671,-87.9365,3.161,9.53,1111122 
DISL,ioos:station:DISL:MHPA:1,2013-03-02T04:00:00Z,30.6671,-87.9365,3.069,9.51,1111122 
DISL,ioos:station:DISL:MHPA:1,2013-03-02T04:30:00Z,30.6671,-87.9365,2.987,9.69,1111122 
DISL,ioos:station:DISL:MHPA:1,2013-03-02T05:00:00Z,30.6671,-87.9365,2.926,9.39,1111122 
DISL,ioos:station:DISL:MHPA:1,2013-03-02T05:30:00Z,30.6671,-87.9365,2.885,9.17,1111122 
DISL,ioos:station:DISL:MHPA:1,2013-03-02T06:00:00Z,30.6671,-87.9365,2.858,9.17,1111122 
DISL,ioos:station:DISL:MHPA:1,2013-03-02T06:30:00Z,30.6671,-87.9365,2.837,8.75,1111122 
DISL,ioos:station:DISL:MHPA:1,2013-03-02T07:00:00Z,30.6671,-87.9365,2.821,8.14,1111122 
DISL,ioos:station:DISL:MHPA:1,2013-03-02T07:30:00Z,30.6671,-87.9365,2.821,8.34,1111122 
DISL,ioos:station:DISL:MHPA:1,2013-03-02T08:00:00Z,30.6671,-87.9365,2.836,8.69,1111122 
DISL,ioos:station:DISL:MHPA:1,2013-03-02T08:30:00Z,30.6671,-87.9365,2.852,8.66,1111122 
DISL,ioos:station:DISL:MHPA:1,2013-03-02T09:00:00Z,30.6671,-87.9365,2.855,8.7,1111122 
DISL,ioos:station:DISL:MHPA:1,2013-03-02T09:30:00Z,30.6671,-87.9365,2.844,9.1,1111122 
DISL,ioos:station:DISL:MHPA:1,2013-03-02T10:00:00Z,30.6671,-87.9365,2.832,8.83,1111122 
DISL,ioos:station:DISL:MHPA:1,2013-03-02T10:30:00Z,30.6671,-87.9365,2.825,8.75,1111122 
DISL,ioos:station:DISL:MHPA:1,2013-03-02T11:00:00Z,30.6671,-87.9365,2.837,9.33,1111122 
DISL,ioos:station:DISL:MHPA:1,2013-03-02T11:30:00Z,30.6671,-87.9365,2.863,9.58,1111122 
DISL,ioos:station:DISL:MHPA:1,2013-03-02T12:00:00Z,30.6671,-87.9365,2.907,9.59,1111122 
DISL,ioos:station:DISL:MHPA:1,2013-03-02T12:30:00Z,30.6671,-87.9365,2.97,9.61,1111122 
DISL,ioos:station:DISL:MHPA:1,2013-03-02T13:00:00Z,30.6671,-87.9365,3.021,9.43,1111122 
DISL,ioos:station:DISL:MHPA:1,2013-03-02T13:30:00Z,30.6671,-87.9365,3.055,9.47,1111122 
DISL,ioos:station:DISL:MHPA:1,2013-03-02T14:00:00Z,30.6671,-87.9365,3.085,9.06,1111122 
DISL,ioos:station:DISL:MHPA:1,2013-03-02T14:30:00Z,30.6671,-87.9365,3.113,9.44,1111122 
DISL,ioos:station:DISL:MHPA:1,2013-03-02T15:00:00Z,30.6671,-87.9365,3.132,9.67,1111122 
DISL,ioos:station:DISL:MHPA:1,2013-03-02T15:30:00Z,30.6671,-87.9365,3.151,9.65,1111122 
DISL,ioos:station:DISL:MHPA:1,2013-03-02T16:00:00Z,30.6671,-87.9365,3.175,9.66,1111122 
DISL,ioos:station:DISL:MHPA:1,2013-03-02T16:30:00Z,30.6671,-87.9365,3.212,9.67,1111122 
DISL,ioos:station:DISL:MHPA:1,2013-03-02T17:00:00Z,30.6671,-87.9365,3.276,9.73,1111122 
DISL,ioos:station:DISL:MHPA:1,2013-03-02T17:30:00Z,30.6671,-87.9365,3.335,9.69,1111122 
DISL,ioos:station:DISL:MHPA:1,2013-03-02T18:00:00Z,30.6671,-87.9365,3.373,9.74,1111122 
DISL,ioos:station:DISL:MHPA:1,2013-03-02T18:30:00Z,30.6671,-87.9365,3.435,9.7,1111122 
DISL,ioos:station:DISL:MHPA:1,2013-03-02T19:00:00Z,30.6671,-87.9365,3.504,9.69,1111122 
DISL,ioos:station:DISL:MHPA:1,2013-03-02T19:30:00Z,30.6671,-87.9365,3.535,9.66,1111122 
DISL,ioos:station:DISL:MHPA:1,2013-03-02T20:00:00Z,30.6671,-87.9365,3.528,9.98,1111122 
DISL,ioos:station:DISL:MHPA:1,2013-03-02T20:30:00Z,30.6671,-87.9365,3.528,10.06,1111122 
DISL,ioos:station:DISL:MHPA:1,2013-03-02T21:00:00Z,30.6671,-87.9365,3.545,9.85,1111122 
DISL,ioos:station:DISL:MHPA:1,2013-03-02T21:30:00Z,30.6671,-87.9365,3.535,9.88,1111122 
DISL,ioos:station:DISL:MHPA:1,2013-03-02T22:00:00Z,30.6671,-87.9365,3.505,10.01,1111122 
DISL,ioos:station:DISL:MHPA:1,2013-03-02T22:30:00Z,30.6671,-87.9365,3.503,10.0,1111122 
DISL,ioos:station:DISL:MHPA:1,2013-03-02T23:00:00Z,30.6671,-87.9365,3.479,10.11,1111122 
DISL,ioos:station:DISL:MHPA:1,2013-03-02T23:30:00Z,30.6671,-87.9365,3.428,10.08,1111122 
DISL,ioos:station:DISL:MHPA:1,2013-03-03T00:00:00Z,30.6671,-87.9365,3.371,10.04,1111122 
DISL,ioos:station:DISL:MHPA:1,2013-03-03T00:30:00Z,30.6671,-87.9365,3.317,10.11,1111122 
DISL,ioos:station:DISL:MHPA:1,2013-03-03T01:00:00Z,30.6671,-87.9365,3.239,10.15,1111122 
DISL,ioos:station:DISL:MHPA:1,2013-03-03T01:30:00Z,30.6671,-87.9365,3.172,10.13,1111122 
DISL,ioos:station:DISL:MHPA:1,2013-03-03T02:00:00Z,30.6671,-87.9365,3.113,9.99,1111122 
DISL,ioos:station:DISL:MHPA:1,2013-03-03T02:30:00Z,30.6671,-87.9365,3.062,9.99,1111122 
DISL,ioos:station:DISL:MHPA:1,2013-03-03T03:00:00Z,30.6671,-87.9365,3.021,9.99,1111122 
DISL,ioos:station:DISL:MHPA:1,2013-03-03T03:30:00Z,30.6671,-87.9365,2.972,9.47,1111122 
DISL,ioos:station:DISL:MHPA:1,2013-03-03T04:00:00Z,30.6671,-87.9365,2.932,9.64,1111122 
DISL,ioos:station:DISL:MHPA:1,2013-03-03T04:30:00Z,30.6671,-87.9365,2.902,9.65,1111122 
DISL,ioos:station:DISL:MHPA:1,2013-03-03T05:00:00Z,30.6671,-87.9365,2.872,9.33,1111122 
DISL,ioos:station:DISL:MHPA:1,2013-03-03T05:30:00Z,30.6671,-87.9365,2.839,9.66,1111122 
DISL,ioos:station:DISL:MHPA:1,2013-03-03T06:00:00Z,30.6671,-87.9365,2.813,9.41,1111122 
DISL,ioos:station:DISL:MHPA:1,2013-03-03T06:30:00Z,30.6671,-87.9365,2.784,9.21,1111122 
DISL,ioos:station:DISL:MHPA:1,2013-03-03T07:00:00Z,30.6671,-87.9365,2.76,9.39,1111122 
DISL,ioos:station:DISL:MHPA:1,2013-03-03T07:30:00Z,30.6671,-87.9365,2.748,9.47,1111122 
DISL,ioos:station:DISL:MHPA:1,2013-03-03T08:00:00Z,30.6671,-87.9365,2.738,9.66,1111122 
DISL,ioos:station:DISL:MHPA:1,2013-03-03T08:30:00Z,30.6671,-87.9365,2.726,9.12,1111122 
DISL,ioos:station:DISL:MHPA:1,2013-03-03T09:00:00Z,30.6671,-87.9365,2.717,9.31,1111122 
DISL,ioos:station:DISL:MHPA:1,2013-03-03T09:30:00Z,30.6671,-87.9365,2.711,9.57,1111122 
DISL,ioos:station:DISL:MHPA:1,2013-03-03T10:00:00Z,30.6671,-87.9365,2.707,9.55,1111122 
DISL,ioos:station:DISL:MHPA:1,2013-03-03T10:30:00Z,30.6671,-87.9365,2.702,9.75,1111122 
DISL,ioos:station:DISL:MHPA:1,2013-03-03T11:00:00Z,30.6671,-87.9365,2.697,9.59,1111122 
DISL,ioos:station:DISL:MHPA:1,2013-03-03T11:30:00Z,30.6671,-87.9365,2.702,9.4,1111122 
DISL,ioos:station:DISL:MHPA:1,2013-03-03T12:00:00Z,30.6671,-87.9365,2.707,9.28,1111122 
DISL,ioos:station:DISL:MHPA:1,2013-03-03T12:30:00Z,30.6671,-87.9365,2.717,9.46,1111122 
DISL,ioos:station:DISL:MHPA:1,2013-03-03T13:00:00Z,30.6671,-87.9365,2.727,9.89,1111122 
DISL,ioos:station:DISL:MHPA:1,2013-03-03T13:30:00Z,30.6671,-87.9365,2.74,10.02,1111122 
DISL,ioos:station:DISL:MHPA:1,2013-03-03T14:00:00Z,30.6671,-87.9365,2.747,9.96,1111122 
DISL,ioos:station:DISL:MHPA:1,2013-03-03T14:30:00Z,30.6671,-87.9365,2.752,10.02,1111122 
DISL,ioos:station:DISL:MHPA:1,2013-03-03T15:00:00Z,30.6671,-87.9365,2.759,9.93,1111122 
DISL,ioos:station:DISL:MHPA:1,2013-03-03T15:30:00Z,30.6671,-87.9365,2.777,9.89,1111122 
DISL,ioos:station:DISL:MHPA:1,2013-03-03T16:00:00Z,30.6671,-87.9365,2.811,10.06,1111122 
DISL,ioos:station:DISL:MHPA:1,2013-03-03T16:30:00Z,30.6671,-87.9365,2.86,10.25,1111122 
DISL,ioos:station:DISL:MHPA:1,2013-03-03T17:00:00Z,30.6671,-87.9365,2.921,10.11,1111122 
DISL,ioos:station:DISL:MHPA:1,2013-03-03T17:30:00Z,30.6671,-87.9365,2.983,10.3,1111122 
DISL,ioos:station:DISL:MHPA:1,2013-03-03T18:00:00Z,30.6671,-87.9365,3.056,10.35,1111122 
DISL,ioos:station:DISL:MHPA:1,2013-03-03T18:30:00Z,30.6671,-87.9365,3.147,10.36,1111122 
DISL,ioos:station:DISL:MHPA:1,2013-03-03T19:00:00Z,30.6671,-87.9365,3.264,10.39,1111122 
DISL,ioos:station:DISL:MHPA:1,2013-03-03T19:30:00Z,30.6671,-87.9365,3.388,10.3,1111122 
DISL,ioos:station:DISL:MHPA:1,2013-03-03T20:00:00Z,30.6671,-87.9365,3.498,10.31,1111122 
DISL,ioos:station:DISL:MHPA:1,2013-03-03T20:30:00Z,30.6671,-87.9365,3.61,10.16,1111122 
DISL,ioos:station:DISL:MHPA:1,2013-03-03T21:00:00Z,30.6671,-87.9365,3.692,10.23,1111122 
DISL,ioos:station:DISL:MHPA:1,2013-03-03T21:30:00Z,30.6671,-87.9365,3.761,10.22,1111122 
DISL,ioos:station:DISL:MHPA:1,2013-03-03T22:00:00Z,30.6671,-87.9365,3.812,10.13,1111122 
DISL,ioos:station:DISL:MHPA:1,2013-03-03T22:30:00Z,30.6671,-87.9365,3.831,9.91,1111122 
DISL,ioos:station:DISL:MHPA:1,2013-03-03T23:00:00Z,30.6671,-87.9365,3.87,10.09,1111122 
DISL,ioos:station:DISL:MHPA:1,2013-03-03T23:30:00Z,30.6671,-87.9365,3.897,10.04,1111122 
DISL,ioos:station:DISL:MHPA:1,2013-03-04T00:00:00Z,30.6671,-87.9365,3.897,9.82,1111122 
DISL,ioos:station:DISL:MHPA:1,2013-03-04T00:30:00Z,30.6671,-87.9365,3.855,9.53,1111122 
DISL,ioos:station:DISL:MHPA:1,2013-03-04T01:00:00Z,30.6671,-87.9365,3.767,9.25,1111122 
DISL,ioos:station:DISL:MHPA:1,2013-03-04T01:30:00Z,30.6671,-87.9365,3.674,9.73,1111122 
DISL,ioos:station:DISL:MHPA:1,2013-03-04T02:00:00Z,30.6671,-87.9365,3.597,10.35,1111122 
DISL,ioos:station:DISL:MHPA:1,2013-03-04T02:30:00Z,30.6671,-87.9365,3.522,10.59,1111122 
DISL,ioos:station:DISL:MHPA:1,2013-03-04T03:00:00Z,30.6671,-87.9365,3.459,10.25,1111122 
DISL,ioos:station:DISL:MHPA:1,2013-03-04T03:30:00Z,30.6671,-87.9365,3.41,9.55,1111122 
DISL,ioos:station:DISL:MHPA:1,2013-03-04T04:00:00Z,30.6671,-87.9365,3.347,9.12,1111122 
DISL,ioos:station:DISL:MHPA:1,2013-03-04T04:30:00Z,30.6671,-87.9365,3.291,8.78,1111122 
DISL,ioos:station:DISL:MHPA:1,2013-03-04T05:00:00Z,30.6671,-87.9365,3.247,8.91,1111122 
DISL,ioos:station:DISL:MHPA:1,2013-03-04T05:30:00Z,30.6671,-87.9365,3.212,8.88,1111122 
DISL,ioos:station:DISL:MHPA:1,2013-03-04T06:00:00Z,30.6671,-87.9365,3.167,8.88,1111122 
DISL,ioos:station:DISL:MHPA:1,2013-03-04T06:30:00Z,30.6671,-87.9365,3.122,9.02,1111122 
DISL,ioos:station:DISL:MHPA:1,2013-03-04T07:00:00Z,30.6671,-87.9365,3.08,9.21,1111122 
DISL,ioos:station:DISL:MHPA:1,2013-03-04T07:30:00Z,30.6671,-87.9365,3.037,9.46,1111122 
DISL,ioos:station:DISL:MHPA:1,2013-03-04T08:00:00Z,30.6671,-87.9365,2.999,9.08,1111122 
DISL,ioos:station:DISL:MHPA:1,2013-03-04T08:30:00Z,30.6671,-87.9365,2.957,9.01,1111122 
DISL,ioos:station:DISL:MHPA:1,2013-03-04T09:00:00Z,30.6671,-87.9365,2.923,9.0,1111122 
DISL,ioos:station:DISL:MHPA:1,2013-03-04T09:30:00Z,30.6671,-87.9365,2.898,9.18,1111122 
DISL,ioos:station:DISL:MHPA:1,2013-03-04T10:00:00Z,30.6671,-87.9365,2.883,8.89,1111122 
DISL,ioos:station:DISL:MHPA:1,2013-03-04T10:30:00Z,30.6671,-87.9365,2.876,9.63,1111122 
DISL,ioos:station:DISL:MHPA:1,2013-03-04T11:00:00Z,30.6671,-87.9365,2.876,9.24,1111122 
DISL,ioos:station:DISL:MHPA:1,2013-03-04T11:30:00Z,30.6671,-87.9365,2.881,9.81,1111122 
DISL,ioos:station:DISL:MHPA:1,2013-03-04T12:00:00Z,30.6671,-87.9365,2.891,9.59,1111122 
DISL,ioos:station:DISL:MHPA:1,2013-03-04T12:30:00Z,30.6671,-87.9365,2.907,9.76,1111122 
DISL,ioos:station:DISL:MHPA:1,2013-03-04T13:00:00Z,30.6671,-87.9365,2.928,9.77,1111122 
DISL,ioos:station:DISL:MHPA:1,2013-03-04T13:30:00Z,30.6671,-87.9365,2.953,9.89,1111122 
DISL,ioos:station:DISL:MHPA:1,2013-03-04T14:00:00Z,30.6671,-87.9365,2.992,9.76,1111122 
DISL,ioos:station:DISL:MHPA:1,2013-03-04T14:30:00Z,30.6671,-87.9365,3.048,9.79,1111122 
DISL,ioos:station:DISL:MHPA:1,2013-03-04T15:00:00Z,30.6671,-87.9365,3.124,9.87,1111122 
DISL,ioos:station:DISL:MHPA:1,2013-03-04T15:30:00Z,30.6671,-87.9365,3.218,9.93,1111122 
DISL,ioos:station:DISL:MHPA:1,2013-03-04T16:00:00Z,30.6671,-87.9365,3.344,10.03,1111122 
DISL,ioos:station:DISL:MHPA:1,2013-03-04T16:30:00Z,30.6671,-87.9365,3.527,10.07,1111122 
DISL,ioos:station:DISL:MHPA:1,2013-03-04T17:00:00Z,30.6671,-87.9365,3.694,9.44,1111122 
DISL,ioos:station:DISL:MHPA:1,2013-03-04T17:30:00Z,30.6671,-87.9365,3.831,9.68,1111122 
DISL,ioos:station:DISL:MHPA:1,2013-03-04T18:00:00Z,30.6671,-87.9365,3.945,10.18,1111122 
DISL,ioos:station:DISL:MHPA:1,2013-03-04T18:30:00Z,30.6671,-87.9365,4.063,9.95,1111122 
DISL,ioos:station:DISL:MHPA:1,2013-03-04T19:00:00Z,30.6671,-87.9365,4.177,9.92,1111122 
DISL,ioos:station:DISL:MHPA:1,2013-03-04T19:30:00Z,30.6671,-87.9365,4.288,9.92,1111122 
DISL,ioos:station:DISL:MHPA:1,2013-03-04T20:00:00Z,30.6671,-87.9365,4.36,9.74,1111122 
DISL,ioos:station:DISL:MHPA:1,2013-03-04T20:30:00Z,30.6671,-87.9365,4.492,9.77,1111122 
DISL,ioos:station:DISL:MHPA:1,2013-03-04T21:00:00Z,30.6671,-87.9365,4.603,9.75,1111122 
DISL,ioos:station:DISL:MHPA:1,2013-03-04T21:30:00Z,30.6671,-87.9365,4.678,9.75,1111122 
DISL,ioos:station:DISL:MHPA:1,2013-03-04T22:00:00Z,30.6671,-87.9365,4.718,10.02,1111122 
DISL,ioos:station:DISL:MHPA:1,2013-03-04T22:30:00Z,30.6671,-87.9365,4.731,9.8,1111122 
DISL,ioos:station:DISL:MHPA:1,2013-03-04T23:00:00Z,30.6671,-87.9365,4.68,10.06,1111122 
DISL,ioos:station:DISL:MHPA:1,2013-03-04T23:30:00Z,30.6671,-87.9365,4.63,10.11,1111122 
DISL,ioos:station:DISL:MHPA:1,2013-03-05T00:00:00Z,30.6671,-87.9365,4.535,10.17,1111122 
DISL,ioos:station:DISL:MHPA:1,2013-03-05T00:30:00Z,30.6671,-87.9365,4.434,9.61,1111122 
DISL,ioos:station:DISL:MHPA:1,2013-03-05T01:00:00Z,30.6671,-87.9365,4.344,9.98,1111122 
DISL,ioos:station:DISL:MHPA:1,2013-03-05T01:30:00Z,30.6671,-87.9365,4.245,9.66,1111122 
DISL,ioos:station:DISL:MHPA:1,2013-03-05T02:00:00Z,30.6671,-87.9365,4.145,10.15,1111122 
DISL,ioos:station:DISL:MHPA:1,2013-03-05T02:30:00Z,30.6671,-87.9365,4.06,9.92,1111122 
DISL,ioos:station:DISL:MHPA:1,2013-03-05T03:00:00Z,30.6671,-87.9365,3.975,9.7,1111122 
DISL,ioos:station:DISL:MHPA:1,2013-03-05T03:30:00Z,30.6671,-87.9365,3.883,9.93,1111122 
DISL,ioos:station:DISL:MHPA:1,2013-03-05T04:00:00Z,30.6671,-87.9365,3.817,9.46,1111122 
DISL,ioos:station:DISL:MHPA:1,2013-03-05T04:30:00Z,30.6671,-87.9365,3.748,9.51,1111122 
DISL,ioos:station:DISL:MHPA:1,2013-03-05T05:00:00Z,30.6671,-87.9365,3.678,9.18,1111122 
DISL,ioos:station:DISL:MHPA:1,2013-03-05T05:30:00Z,30.6671,-87.9365,3.615,8.95,1111122 
DISL,ioos:station:DISL:MHPA:1,2013-03-05T06:00:00Z,30.6671,-87.9365,3.559,9.0,1111122 
DISL,ioos:station:DISL:MHPA:1,2013-03-05T06:30:00Z,30.6671,-87.9365,3.513,9.13,1111122 
DISL,ioos:station:DISL:MHPA:1,2013-03-05T07:00:00Z,30.6671,-87.9365,3.467,9.26,1111122 
DISL,ioos:station:DISL:MHPA:1,2013-03-05T07:30:00Z,30.6671,-87.9365,3.421,9.78,1111122 
DISL,ioos:station:DISL:MHPA:1,2013-03-05T08:00:00Z,30.6671,-87.9365,3.372,9.48,1111122 
DISL,ioos:station:DISL:MHPA:1,2013-03-05T08:30:00Z,30.6671,-87.9365,3.328,9.19,1111122 
DISL,ioos:station:DISL:MHPA:1,2013-03-05T09:00:00Z,30.6671,-87.9365,3.288,8.82,1111122 
DISL,ioos:station:DISL:MHPA:1,2013-03-05T09:30:00Z,30.6671,-87.9365,3.251,9.03,1111122 
DISL,ioos:station:DISL:MHPA:1,2013-03-05T10:00:00Z,30.6671,-87.9365,3.213,9.01,1111122 
DISL,ioos:station:DISL:MHPA:1,2013-03-05T10:30:00Z,30.6671,-87.9365,3.182,8.86,1111122 
DISL,ioos:station:DISL:MHPA:1,2013-03-05T11:00:00Z,30.6671,-87.9365,3.158,9.17,1111122 
DISL,ioos:station:DISL:MHPA:1,2013-03-05T11:30:00Z,30.6671,-87.9365,3.159,9.42,1111122 
DISL,ioos:station:DISL:MHPA:1,2013-03-05T12:00:00Z,30.6671,-87.9365,3.162,9.14,1111122 
DISL,ioos:station:DISL:MHPA:1,2013-03-05T12:30:00Z,30.6671,-87.9365,3.161,9.13,1111122 
DISL,ioos:station:DISL:MHPA:1,2013-03-05T13:00:00Z,30.6671,-87.9365,3.168,9.48,1111122 
DISL,ioos:station:DISL:MHPA:1,2013-03-05T13:30:00Z,30.6671,-87.9365,3.186,9.51,1111122 
DISL,ioos:station:DISL:MHPA:1,2013-03-05T14:00:00Z,30.6671,-87.9365,3.21,9.24,1111122 
DISL,ioos:station:DISL:MHPA:1,2013-03-05T14:30:00Z,30.6671,-87.9365,3.241,9.04,1111122 
DISL,ioos:station:DISL:MHPA:1,2013-03-05T15:00:00Z,30.6671,-87.9365,3.29,8.88,1111122 
DISL,ioos:station:DISL:MHPA:1,2013-03-05T15:30:00Z,30.6671,-87.9365,3.371,9.11,1111122 
DISL,ioos:station:DISL:MHPA:1,2013-03-05T16:00:00Z,30.6671,-87.9365,3.483,8.8,1111122 
DISL,ioos:station:DISL:MHPA:1,2013-03-05T16:30:00Z,30.6671,-87.9365,3.641,9.65,1111122 
DISL,ioos:station:DISL:MHPA:1,2013-03-05T17:00:00Z,30.6671,-87.9365,3.858,9.84,1111122 
DISL,ioos:station:DISL:MHPA:1,2013-03-05T17:30:00Z,30.6671,-87.9365,4.095,10.0,1111122 
DISL,ioos:station:DISL:MHPA:1,2013-03-05T18:00:00Z,30.6671,-87.9365,4.218,9.66,1111122 
DISL,ioos:station:DISL:MHPA:1,2013-03-05T18:30:00Z,30.6671,-87.9365,4.337,9.43,1111122 
DISL,ioos:station:DISL:MHPA:1,2013-03-05T19:00:00Z,30.6671,-87.9365,4.476,9.53,1111122 
DISL,ioos:station:DISL:MHPA:1,2013-03-05T19:30:00Z,30.6671,-87.9365,4.65,9.9,1111122 
DISL,ioos:station:DISL:MHPA:1,2013-03-05T20:00:00Z,30.6671,-87.9365,4.795,9.88,1111122 
DISL,ioos:station:DISL:MHPA:1,2013-03-05T20:30:00Z,30.6671,-87.9365,4.775,9.76,1111122 
DISL,ioos:station:DISL:MHPA:1,2013-03-05T21:00:00Z,30.6671,-87.9365,4.912,9.48,1111122 
DISL,ioos:station:DISL:MHPA:1,2013-03-05T21:30:00Z,30.6671,-87.9365,5.109,9.57,1111122 
DISL,ioos:station:DISL:MHPA:1,2013-03-05T22:00:00Z,30.6671,-87.9365,5.232,9.95,1111122 
DISL,ioos:station:DISL:MHPA:1,2013-03-05T22:30:00Z,30.6671,-87.9365,5.303,10.07,1111122 
DISL,ioos:station:DISL:MHPA:1,2013-03-05T23:00:00Z,30.6671,-87.9365,5.271,10.17,1111122 
DISL,ioos:station:DISL:MHPA:1,2013-03-05T23:30:00Z,30.6671,-87.9365,5.194,10.16,1111122 
DISL,ioos:station:DISL:MHPA:1,2013-03-06T00:00:00Z,30.6671,-87.9365,5.073,10.04,1111122 
DISL,ioos:station:DISL:MHPA:1,2013-03-06T00:30:00Z,30.6671,-87.9365,5.0,10.05,1111122 
DISL,ioos:station:DISL:MHPA:1,2013-03-06T01:00:00Z,30.6671,-87.9365,4.908,9.86,1111122 
DISL,ioos:station:DISL:MHPA:1,2013-03-06T01:30:00Z,30.6671,-87.9365,4.814,9.98,1111122 
DISL,ioos:station:DISL:MHPA:1,2013-03-06T02:00:00Z,30.6671,-87.9365,4.682,10.0,1111122 
DISL,ioos:station:DISL:MHPA:1,2013-03-06T02:30:00Z,30.6671,-87.9365,4.518,9.93,1111122 
DISL,ioos:station:DISL:MHPA:1,2013-03-06T03:00:00Z,30.6671,-87.9365,4.353,9.87,1111122 
DISL,ioos:station:DISL:MHPA:1,2013-03-06T03:30:00Z,30.6671,-87.9365,4.187,9.92,1111122 
DISL,ioos:station:DISL:MHPA:1,2013-03-06T04:00:00Z,30.6671,-87.9365,4.061,9.55,1111122 
DISL,ioos:station:DISL:MHPA:1,2013-03-06T04:30:00Z,30.6671,-87.9365,3.968,9.83,1111122 
DISL,ioos:station:DISL:MHPA:1,2013-03-06T05:00:00Z,30.6671,-87.9365,3.873,9.9,1111122 
DISL,ioos:station:DISL:MHPA:1,2013-03-06T05:30:00Z,30.6671,-87.9365,3.773,9.64,1111122 
DISL,ioos:station:DISL:MHPA:1,2013-03-06T06:00:00Z,30.6671,-87.9365,3.708,9.22,1111122 
DISL,ioos:station:DISL:MHPA:1,2013-03-06T06:30:00Z,30.6671,-87.9365,3.653,8.78,1111122 
DISL,ioos:station:DISL:MHPA:1,2013-03-06T07:00:00Z,30.6671,-87.9365,3.594,8.75,1111122 
DISL,ioos:station:DISL:MHPA:1,2013-03-06T07:30:00Z,30.6671,-87.9365,3.521,8.92,1111122 
DISL,ioos:station:DISL:MHPA:1,2013-03-06T08:00:00Z,30.6671,-87.9365,3.439,9.71,1111122 
DISL,ioos:station:DISL:MHPA:1,2013-03-06T08:30:00Z,30.6671,-87.9365,3.363,9.45,1111122 
DISL,ioos:station:DISL:MHPA:1,2013-03-06T09:00:00Z,30.6671,-87.9365,3.268,9.24,1111122 
DISL,ioos:station:DISL:MHPA:1,2013-03-06T09:30:00Z,30.6671,-87.9365,3.186,8.99,1111122 
DISL,ioos:station:DISL:MHPA:1,2013-03-06T10:00:00Z,30.6671,-87.9365,3.118,9.06,1111122 
DISL,ioos:station:DISL:MHPA:1,2013-03-06T10:30:00Z,30.6671,-87.9365,3.052,8.63,1111122 
DISL,ioos:station:DISL:MHPA:1,2013-03-06T11:00:00Z,30.6671,-87.9365,2.994,8.77,1111122 
DISL,ioos:station:DISL:MHPA:1,2013-03-06T11:30:00Z,30.6671,-87.9365,2.949,8.37,1111122 
DISL,ioos:station:DISL:MHPA:1,2013-03-06T12:00:00Z,30.6671,-87.9365,2.921,8.74,1111122 
DISL,ioos:station:DISL:MHPA:1,2013-03-06T12:30:00Z,30.6671,-87.9365,2.899,8.67,1111122 
DISL,ioos:station:DISL:MHPA:1,2013-03-06T13:00:00Z,30.6671,-87.9365,2.875,8.46,1111122 
DISL,ioos:station:DISL:MHPA:1,2013-03-06T13:30:00Z,30.6671,-87.9365,2.845,9.25,1111122 
DISL,ioos:station:DISL:MHPA:1,2013-03-06T14:00:00Z,30.6671,-87.9365,2.814,9.43,1111122 
DISL,ioos:station:DISL:MHPA:1,2013-03-06T14:30:00Z,30.6671,-87.9365,2.79,9.44,1111122 
DISL,ioos:station:DISL:MHPA:1,2013-03-06T15:00:00Z,30.6671,-87.9365,2.772,9.61,1111122 